Location: Chippewa Lake
(41.0698°N, 81.9010°W)
Time: 21:33:41
(UTC+00:00)

Cosmos 2227 Rocket - Pass Details

Date: 09 May 2021
Orbit: 840 x 844 km, 71.0° (Epoch: 17 June)

Event Time Altitude Azimuth Distance (km) Brightness Sun altitude
Rises 08:15:24 0° 336° (NNW) 3,402 5.6 -19.3°
Reaches altitude 10° 08:17:51 10° 336° (NNW) 2,464 4.9 -19.0°
Maximum altitude 08:23:32 90° 72° (ENE) 846 2.1 -18.2°
Drops below altitude 10° 08:29:10 10° 158° (SSE) 2,450 4.4 -17.5°
Sets 08:31:36 0° 158° (SSE) 3,381 5.1 -17.1°
